Hourly Weather Otshivka

Today, 30 July, Friday

Time Temperature Precipitation Wind Pressure Humidity
00:00 +24°C° 0 mm 1 mps 745 mmHg 61%
01:00 +24°C° 0 mm 1 mps 744 mmHg 63%
02:00 +23°C° 0 mm 1 mps 744 mmHg 65%
03:00 +23°C° 0 mm 1 mps 744 mmHg 66%
04:00 +23°C° 0 mm 1 mps 744 mmHg 66%
05:00 +23°C° 0 mm 1 mps 744 mmHg 66%
06:00 +24°C° 0 mm 2 mps 744 mmHg 67%
07:00 +25°C° 0.1 mm 2 mps 744 mmHg 63%
08:00 +27°C° 0.1 mm 2 mps 744 mmHg 59%
09:00 +28°C° 0 mm 3 mps 744 mmHg 57%
10:00 +30°C° 0 mm 3 mps 744 mmHg 52%
11:00 +32°C° 0 mm 4 mps 744 mmHg 47%
12:00 +34°C° 0 mm 4 mps 744 mmHg 42%
13:00 +33°C° 0 mm 4 mps 743 mmHg 43%
14:00 +33°C° 0 mm 4 mps 743 mmHg 44%
15:00 +32°C° 0 mm 4 mps 742 mmHg 46%
16:00 +30°C° 0.2 mm 4 mps 742 mmHg 50%
17:00 +30°C° 0.2 mm 4 mps 742 mmHg 53%
18:00 +29°C° 0.2 mm 4 mps 742 mmHg 57%
19:00 +27°C° 0.2 mm 3 mps 742 mmHg 63%
20:00 +26°C° 0.2 mm 3 mps 742 mmHg 69%
21:00 +24°C° 0.2 mm 3 mps 743 mmHg 74%
22:00 +24°C° 0 mm 3 mps 743 mmHg 78%
23:00 +22°C° 0 mm 3 mps 743 mmHg 81%

Tomorrow, 31 July, Saturday

Time Temperature Precipitation Wind Pressure Humidity
00:00 +21°C° 0 mm 3 mps 744 mmHg 84%
01:00 +20°C° 0 mm 3 mps 744 mmHg 87%
02:00 +20°C° 0 mm 3 mps 744 mmHg 89%
03:00 +19°C° 0 mm 3 mps 744 mmHg 92%
04:00 +19°C° 0 mm 3 mps 744 mmHg 91%
05:00 +19°C° 0 mm 3 mps 744 mmHg 90%
06:00 +20°C° 0 mm 2 mps 745 mmHg 88%
07:00 +22°C° 0 mm 3 mps 745 mmHg 78%
08:00 +25°C° 0 mm 3 mps 745 mmHg 67%
09:00 +27°C° 0 mm 3 mps 746 mmHg 57%
10:00 +28°C° 0 mm 3 mps 746 mmHg 50%
11:00 +29°C° 0 mm 3 mps 746 mmHg 43%
12:00 +30°C° 0 mm 4 mps 746 mmHg 37%
13:00 +32°C° 0 mm 4 mps 746 mmHg 34%
14:00 +31°C° 0 mm 3 mps 746 mmHg 32%
15:00 +33°C° 0 mm 3 mps 746 mmHg 30%
16:00 +33°C° 0 mm 3 mps 746 mmHg 32%
17:00 +32°C° 0 mm 2 mps 746 mmHg 33%
18:00 +31°C° 0 mm 2 mps 746 mmHg 35%
19:00 +30°C° 0 mm 2 mps 746 mmHg 37%
20:00 +28°C° 0 mm 2 mps 746 mmHg 39%
21:00 +26°C° 0 mm 2 mps 747 mmHg 42%
22:00 +25°C° 0 mm 2 mps 747 mmHg 44%
23:00 +24°C° 0 mm 2 mps 747 mmHg 47%

Day after tomorrow, 1 August, Sunday

Time Temperature Precipitation Wind Pressure Humidity
00:00 +23°C° 0 mm 2 mps 747 mmHg 49%
01:00 +23°C° 0 mm 2 mps 747 mmHg 52%
02:00 +21°C° 0 mm 2 mps 748 mmHg 54%
03:00 +22°C° 0 mm 1 mps 748 mmHg 56%
04:00 +22°C° 0 mm 1 mps 748 mmHg 58%
05:00 +22°C° 0 mm 1 mps 748 mmHg 59%
06:00 +21°C° 0 mm 0 mps 749 mmHg 60%
07:00 +25°C° 0 mm 1 mps 749 mmHg 54%
08:00 +27°C° 0 mm 1 mps 749 mmHg 48%
09:00 +29°C° 0 mm 1 mps 749 mmHg 42%
10:00 +31°C° 0 mm 2 mps 749 mmHg 38%
11:00 +32°C° 0 mm 2 mps 749 mmHg 34%
12:00 +34°C° 0 mm 3 mps 749 mmHg 30%
13:00 +35°C° 0 mm 2 mps 749 mmHg 28%
14:00 +35°C° 0 mm 2 mps 748 mmHg 27%
15:00 +36°C° 0 mm 2 mps 748 mmHg 25%
16:00 +35°C° 0 mm 2 mps 748 mmHg 27%
17:00 +35°C° 0 mm 3 mps 748 mmHg 29%
18:00 +34°C° 0 mm 3 mps 747 mmHg 31%
19:00 +31°C° 0 mm 3 mps 747 mmHg 35%
20:00 +29°C° 0 mm 3 mps 747 mmHg 38%
21:00 +27°C° 0 mm 3 mps 747 mmHg 41%
22:00 +27°C° 0 mm 3 mps 748 mmHg 44%
23:00 +26°C° 0 mm 3 mps 748 mmHg 46%

2 August, Monday

Time Temperature Precipitation Wind Pressure Humidity
00:00 +25°C° 0 mm 3 mps 748 mmHg 48%
01:00 +25°C° 0 mm 3 mps 748 mmHg 51%
02:00 +24°C° 0 mm 3 mps 748 mmHg 54%
03:00 +24°C° 0 mm 3 mps 748 mmHg 57%
04:00 +24°C° 0.1 mm 3 mps 748 mmHg 60%
05:00 +24°C° 0.1 mm 2 mps 748 mmHg 63%
06:00 +24°C° 0.1 mm 2 mps 748 mmHg 66%
07:00 +26°C° 0.1 mm 2 mps 748 mmHg 60%
08:00 +28°C° 0.1 mm 2 mps 747 mmHg 53%
09:00 +30°C° 0.1 mm 2 mps 747 mmHg 47%
10:00 +33°C° 0 mm 3 mps 747 mmHg 41%
11:00 +34°C° 0 mm 3 mps 747 mmHg 36%
12:00 +36°C° 0 mm 3 mps 746 mmHg 31%
13:00 +37°C° 0 mm 3 mps 746 mmHg 28%
14:00 +38°C° 0 mm 4 mps 746 mmHg 26%
15:00 +38°C° 0 mm 4 mps 745 mmHg 23%
16:00 +36°C° 0.1 mm 4 mps 745 mmHg 29%
17:00 +35°C° 0.1 mm 3 mps 745 mmHg 34%
18:00 +33°C° 0.1 mm 3 mps 744 mmHg 39%
19:00 +30°C° 0 mm 3 mps 744 mmHg 42%
20:00 +29°C° 0 mm 4 mps 744 mmHg 44%
21:00 +28°C° 0 mm 4 mps 744 mmHg 46%
22:00 +28°C° 0 mm 4 mps 745 mmHg 47%
23:00 +27°C° 0 mm 5 mps 745 mmHg 47%

3 August, Tuesday

Time Temperature Precipitation Wind Pressure Humidity
00:00 +27°C° 0 mm 5 mps 745 mmHg 47%
01:00 +26°C° 0 mm 4 mps 745 mmHg 53%
02:00 +25°C° 0 mm 3 mps 744 mmHg 58%
03:00 +24°C° 0 mm 2 mps 744 mmHg 64%
04:00 +24°C° 0.2 mm 2 mps 745 mmHg 67%
05:00 +24°C° 0.2 mm 3 mps 745 mmHg 71%
06:00 +22°C° 0.2 mm 4 mps 746 mmHg 75%
07:00 +24°C° 0.1 mm 3 mps 745 mmHg 75%
08:00 +24°C° 0.1 mm 3 mps 745 mmHg 75%
09:00 +25°C° 0.1 mm 3 mps 745 mmHg 75%
10:00 +26°C° 0.1 mm 3 mps 745 mmHg 69%
11:00 +27°C° 0.1 mm 3 mps 745 mmHg 63%
12:00 +28°C° 0.1 mm 4 mps 745 mmHg 57%
13:00 +28°C° 0.4 mm 4 mps 745 mmHg 57%
14:00 +28°C° 0.4 mm 5 mps 745 mmHg 57%
15:00 +28°C° 0.4 mm 5 mps 744 mmHg 56%
16:00 +27°C° 1.3 mm 4 mps 744 mmHg 62%
17:00 +26°C° 1.3 mm 3 mps 744 mmHg 67%
18:00 +25°C° 1.3 mm 2 mps 745 mmHg 72%
19:00 +24°C° 0.7 mm 2 mps 745 mmHg 77%
20:00 +21°C° 0.7 mm 2 mps 746 mmHg 82%
21:00 +20°C° 0.7 mm 3 mps 746 mmHg 87%
22:00 +19°C° 0.2 mm 3 mps 746 mmHg 88%
23:00 +19°C° 0.2 mm 4 mps 746 mmHg 89%

4 August, Wednesday

Time Temperature Precipitation Wind Pressure Humidity
00:00 +18°C° 0.2 mm 4 mps 747 mmHg 91%
01:00 +17°C° 0 mm 4 mps 747 mmHg 92%
02:00 +17°C° 0 mm 4 mps 747 mmHg 93%
03:00 +15°C° 0 mm 4 mps 747 mmHg 94%
04:00 +15°C° 0 mm 4 mps 748 mmHg 92%
05:00 +16°C° 0 mm 3 mps 748 mmHg 91%
06:00 +16°C° 0 mm 3 mps 749 mmHg 90%
07:00 +17°C° 0 mm 3 mps 749 mmHg 81%
08:00 +19°C° 0 mm 4 mps 749 mmHg 73%
09:00 +21°C° 0 mm 4 mps 749 mmHg 64%
10:00 +22°C° 0 mm 4 mps 750 mmHg 57%
11:00 +25°C° 0 mm 4 mps 750 mmHg 49%
12:00 +26°C° 0 mm 4 mps 750 mmHg 42%
13:00 +27°C° 0 mm 4 mps 750 mmHg 39%
14:00 +28°C° 0 mm 4 mps 749 mmHg 37%
15:00 +28°C° 0 mm 3 mps 749 mmHg 34%
16:00 +28°C° 0 mm 3 mps 749 mmHg 35%
17:00 +28°C° 0 mm 3 mps 749 mmHg 36%
18:00 +27°C° 0 mm 3 mps 749 mmHg 37%
19:00 +26°C° 0 mm 3 mps 750 mmHg 42%
20:00 +24°C° 0 mm 3 mps 750 mmHg 48%
21:00 +21°C° 0 mm 3 mps 750 mmHg 54%
22:00 +21°C° 0 mm 3 mps 750 mmHg 55%
23:00 +20°C° 0 mm 2 mps 751 mmHg 56%
Show more